Weather Roundup
Issued by NWS

Home | Current Version | Previous Version | Graphics & Text | Print | Product List | Glossary Off
Versions: 1 2 3 4 5 6 7 8 9 10 11 12 13 14 15 16 17 18 19 20 21 22 23 24 25 26 27 28 29 30 31 32 33 34 35 36 37 38 39 40 41 42 43 44 45 46 47 48 49 50

000
NZUS93 KARX 240859
HRRWXR

CURRENT HOURLY OBSERVATIONS ACROSS
MUCH OF THE UPPER MISSISSIPPI VALLEY
NATIONAL WEATHER SERVICE LA CROSSE WI
400 AM CDT FRI OCT 24 2014


...SOUTHEAST MINNESOTA...


CITY           SKY/WX    TMP DP  RH WIND       PRES   REMARKS
ROCHESTER      FOG       46  45  96 S7        30.00F VSB 1/4
ROCHESTER/MAYO CLOUDY    46  45  98 SE3       30.00R VSB 1/4
WINONA         CLOUDY    52  50  93 CALM      30.02S
AUSTIN         MIX PCPN  45  45 100 CALM      29.99S VSB 1/4
ALBERT LEA     CLEAR     45  45 100 SE6       29.97F FOG
DODGE CENTER   PTCLDY    45  45 100 S8        29.98F FOG
PRESTON        FOG       48  47  98 S8        30.01S VSB 1/4
OWATONNA       PTCLDY    50  45  81 SE10      29.96F
FARIBAULT      PTCLDY    46  45  93 S5        29.96F
$$

...ELSEWHERE IN MINNESOTA...


CITY           SKY/WX    TMP DP  RH WIND       PRES   REMARKS
MINNEAPOLIS    PTCLDY    47  45  93 E7        29.94F
INTNL FALLS    CLOUDY    52  40  63 VRB3      29.78F
DULUTH         CLOUDY    48  45  89 SW12      29.90F FOG
RED WING       MOCLDY    46  46 100 E5        29.97F FOG
REDWOOD FALLS  MOCLDY    48  43  82 SE8       29.86F
MANKATO        PTCLDY    48  39  71 S10       29.93F
WORTHINGTON    MOCLDY    52  45  76 S13       29.90F
FAIRMONT       PTCLDY    45  37  76 S8        29.93F
$$

...SOUTHWEST WISCONSIN...


CITY           SKY/WX    TMP DP  RH WIND       PRES   REMARKS
LA CROSSE      FOG       51  50  96 SE7       30.01F VSB 1
PRAIRIE DU CHI FOG       50  49  96 E3        30.04F VSB 1/2
BOSCOBEL       FOG       51  49  92 CALM      30.04F VSB 1/2
LONE ROCK      FOG       52  48  87 W5        30.04F VSB 3/4
PLATTEVILLE    CLOUDY    50  49  97 W5        30.06S VSB 3/4
FORT MC COY    FOG       47  47 100 SW3       30.04F VSB 1
CAMP DOUGLAS   CLOUDY    46  46 100 S3        30.02F FOG
VIROQUA        CLOUDY    48  48 100 S5        30.03F VSB<1/4
WIS DELLS      FOG       47  46  96 W5        30.04S VSB 1/4
$$

...ELSEWHERE IN WISCONSIN...


CITY           SKY/WX    TMP DP  RH WIND       PRES   REMARKS
MILWAUKEE      CLOUDY    51  49  92 W6        30.04R
MADISON        CLOUDY    49  47  93 W6        30.04S FOG
GREEN BAY      CLOUDY    48  47  96 W6        30.02S FOG
EAU CLAIRE     CLOUDY    49  48  97 S5        30.00R FOG
BLACK RVR FLS  FOG       48  48 100 S3        30.02F VSB 1/4
MEDFORD        FOG       44  44 100 CALM      30.00F VSB 1/4
WAUSAU         CLOUDY    46  45  96 CALM      29.99F FOG
WIS RAPIDS     CLOUDY    47  46  97 SW8       30.03F FOG
MARSHFIELD     FOG       46  45  96 SW5       30.01F VSB 1/4
RICE LAKE      CLOUDY    50  48  95 SE5       30.00S FOG
$$

...NORTHEAST IOWA...


CITY           SKY/WX    TMP DP  RH WIND       PRES   REMARKS
DECORAH        FOG       50  50 100 CALM      30.01F VSB<1/4
MASON CITY     NOT AVBL
CHARLES CITY   FOG       46  46 100 SE5       30.01F VSB<1/4
OELWEIN        FOG       50  50 100 SE6       30.03F VSB<1/4
$$

...ELSEWHERE IN IOWA...


CITY           SKY/WX    TMP DP  RH WIND       PRES   REMARKS
DES MOINES     FOG       53  52  96 S6        30.02F VSB 1/8
IOWA CITY      FOG       46  46 100 S3        30.06S VSB 1/2
FORT DODGE     PTCLDY    48  43  81 CALM      29.99S
$$

...NORTHERN ILLINOIS...


CITY           SKY/WX    TMP DP  RH WIND       PRES   REMARKS
CHICAGO-OHARE  CLOUDY    53  44  71 SW7       30.04S
CHICAGO-MIDWAY CLOUDY    55  45  68 SW6       30.05S
MOLINE         CLOUDY    44  44 100 CALM      30.06S FOG
ROCKFORD       FOG       41  40  96 CALM      30.07R VSB 1/2
PEORIA         CLEAR     52  45  77 S3        30.06S
$$

NOTE: "FAIR" INDICATES FEW OR NO CLOUDS BELOW 12,000 FEET WITH NO
SIGNIFICANT WEATHER AND/OR OBSTRUCTIONS TO VISIBILITY. WIND
SPEEDS ARE IN MILES-PER-HOUR.



USA.gov is the U.S. government's official web portal to all federal, state and local government web resources and services.